Wind_Speed
64 63 62 61 60 58 57 56 54 53 52 50 49 49 49 50 51 54 58 61 63 64 64 63 62 61 61 61 60 60 60 59 58 57 56 56 55 52 50 50 50 49 47 46 45 44 43 42 41 39 38 37 36 35 34 33 32 31 30 29 25 23 23 24 25 23 20 19 18 16 15 14 14 14 14 13 13 13 13 14 14 14 14 14 13 12 12 12
68 67 66 64 63 62 61 60 58 56 55 54 52 51 50 50 50 51 54 57 60 62 63 64 63 62 62 61 60 60 60 60 59 58 58 59 57 54 52 52 51 50 49 48 47 46 45 44 43 42 41 39 38 37 37 36 34 33 32 30 26 24 25 27 28 25 22 20 19 17 15 14 14 14 13 12 12 12 13 14 15 16 16 15 14 14 13 13
71 71 70 68 67 66 65 63 62 61 59 57 56 55 53 52 51 51 52 53 55 58 60 62 63 63 63 62 61 60 59 59 58 58 59 60 58 56 55 54 53 51 50 50 49 49 48 46 46 45 44 42 40 40 40 38 37 35 34 31 27 28 29 30 30 28 25 23 21 19 17 16 15 14 14 12 12 12 13 14 15 16 16 15 14 14 15 14
68 71 73 72 71 70 68 67 66 64 63 61 60 58 57 55 54 53 52 52 53 54 56 58 60 63 64 64 63 62 60 58 56 57 59 60 59 58 57 56 55 54 52 52 51 50 50 49 48 47 46 44 43 42 42 40 39 38 36 32 30 32 32 31 31 31 29 26 23 21 19 17 16 15 15 14 13 13 13 13 14 14 15 14 14 14 15 15
61 65 69 73 74 73 72 71 70 68 67 65 64 62 60 59 57 56 55 54 53 53 53 54 56 59 62 64 64 64 62 60 57 56 58 60 59 59 58 58 57 56 55 53 52 52 51 51 50 49 48 47 45 45 43 42 42 41 38 35 34 35 34 33 34 33 32 29 27 25 22 19 17 16 16 15 15 15 14 13 13 13 14 14 14 14 15 16
60 60 63 67 71 74 75 74 73 72 71 69 68 66 64 62 61 59 58 56 55 54 53 53 54 55 58 61 63 64 64 63 61 58 58 59 58 58 58 58 58 57 56 55 54 53 53 53 52 51 50 49 48 46 45 45 45 44 41 38 38 37 36 36 36 35 34 32 30 28 25 22 20 18 18 17 17 17 15 14 13 13 14 13 13 14 15 16
62 62 62 62 65 69 72 75 76 75 74 73 72 70 68 66 64 63 61 60 58 57 55 54 54 54 55 57 59 62 64 62 62 61 59 59 58 57 57 58 58 57 57 56 56 55 54 54 54 53 52 51 50 48 48 47 47 46 43 41 40 40 39 39 39 37 36 35 33 31 29 25 23 21 20 19 19 20 17 15 15 15 15 14 14 14 15 15
65 65 64 64 64 64 67 70 74 77 77 76 75 74 72 70 68 67 65 63 62 60 58 57 56 55 55 56 56 60 61 57 59 62 61 61 60 58 57 57 58 57 57 57 57 56 56 55 55 55 54 54 52 50 50 50 49 48 45 44 43 42 42 42 41 40 38 37 36 35 32 29 27 24 21 19 20 22 21 19 18 17 17 17 16 16 15 15
68 68 67 67 66 66 66 66 68 72 76 78 78 77 76 75 73 71 69 67 66 64 62 60 59 58 58 57 55 58 55 50 56 61 60 61 61 61 59 58 58 58 57 57 57 57 56 56 56 56 56 55 54 53 52 52 51 50 48 47 46 45 44 44 43 42 41 40 39 38 36 33 31 28 23 20 22 24 25 23 22 20 20 19 19 18 17 16
72 71 70 70 69 68 68 67 67 68 71 75 78 80 79 78 77 75 73 71 70 68 66 64 63 62 60 59 58 56 50 46 54 58 57 59 61 62 62 61 60 59 59 58 58 57 57 57 57 57 56 56 56 55 54 54 53 51 50 50 49 48 47 46 46 45 44 42 42 41 39 37 37 33 24 21 24 26 27 27 26 24 22 22 21 20 19 17
75 74 74 73 72 71 71 70 69 68 68 69 73 77 80 81 80 79 77 75 74 71 70 68 67 66 64 63 61 55 47 46 53 55 55 58 59 61 62 62 62 61 60 59 59 58 57 58 58 57 57 57 56 56 56 55 54 53 52 51 51 50 49 49 48 48 47 45 44 44 43 41 41 36 25 24 28 29 30 30 29 27 25 25 23 23 21 19
78 77 77 76 75 74 74 73 72 71 70 69 69 72 76 80 82 82 81 79 78 76 74 72 71 69 68 67 63 55 49 49 53 54 55 56 57 59 60 61 62 62 61 60 60 59 58 58 58 57 57 57 57 57 57 56 56 55 54 53 53 52 52 51 50 50 50 48 46 46 47 45 43 37 30 31 33 32 33 32 31 30 29 27 26 25 23 23
79 80 79 79 78 77 76 76 74 74 73 72 71 70 71 75 79 82 83 83 81 80 78 76 75 73 72 70 64 58 53 53 55 54 53 54 55 57 58 58 59 60 61 61 61 60 59 59 58 57 57 57 57 58 58 57 56 56 56 55 54 54 53 52 51 52 51 50 48 49 51 47 43 40 35 36 37 36 35 34 33 33 32 31 29 27 26 25
81 81 81 81 81 80 79 78 78 76 75 75 74 73 72 71 74 78 82 85 84 83 82 81 79 77 76 72 66 62 58 57 57 55 53 53 53 54 55 56 57 58 59 60 61 60 60 60 59 58 57 57 57 59 59 58 58 57 57 57 56 55 53 52 52 53 52 51 50 51 54 49 43 41 40 40 41 39 38 36 36 36 35 34 33 31 28 28
83 83 83 83 83 82 82 81 80 79 78 78 77 76 75 73 73 74 77 82 84 85 85 84 83 81 79 74 70 66 63 61 58 56 56 56 55 54 54 55 56 56 57 59 60 60 60 60 60 59 57 57 57 58 59 59 59 59 59 58 56 55 53 51 52 54 53 53 53 54 57 50 43 42 43 43 43 43 41 39 38 39 38 37 36 34 31 30
83 84 84 85 85 85 84 84 83 82 81 80 79 78 78 77 75 74 74 76 81 84 86 87 85 84 83 78 73 70 67 63 59 59 60 59 58 57 56 55 55 55 56 57 58 59 60 61 60 60 59 58 57 58 59 59 60 61 61 60 58 56 54 53 53 55 55 55 55 56 57 52 44 43 44 46 46 46 45 42 41 41 40 39 38 36 34 33
79 83 85 85 86 87 87 86 85 84 84 83 82 81 81 80 78 77 76 75 77 80 84 86 86 87 86 79 76 75 71 67 63 64 64 62 61 61 60 58 57 56 56 57 58 58 60 61 61 61 60 59 59 59 60 61 61 61 61 60 58 56 56 55 54 55 56 56 56 56 58 55 48 45 46 48 48 48 47 45 43 42 41 40 39 38 37 35
71 77 81 83 85 87 88 88 87 87 86 85 85 84 83 83 82 80 79 77 76 77 80 84 86 90 87 80 79 78 74 71 68 68 68 66 65 64 63 62 60 59 58 57 57 58 59 60 61 62 62 62 62 62 63 62 58 55 55 56 56 56 56 56 56 57 57 58 59 59 59 57 52 48 48 49 49 49 49 48 45 43 41 40 39 39 39 38
61 67 72 77 81 84 87 89 88 88 88 88 87 87 86 86 85 84 82 81 80 79 78 80 84 88 86 83 83 81 79 77 73 72 72 69 68 67 66 65 64 62 61 59 58 58 59 59 61 63 63 64 63 62 60 57 52 50 52 55 56 57 57 56 56 58 59 60 60 60 60 59 54 50 48 50 51 51 50 49 48 45 42 41 40 40 40 40
50 56 62 68 73 77 82 87 88 88 88 89 89 89 90 89 87 86 85 84 82 81 79 78 79 81 84 86 85 83 83 81 78 76 75 73 72 71 69 68 66 65 63 61 60 60 59 60 61 62 61 59 59 58 57 55 52 52 53 55 56 57 57 56 55 57 59 60 61 61 61 60 57 53 50 51 52 51 50 50 49 47 45 43 42 41 41 40
40 46 52 57 63 69 74 79 83 85 87 88 90 92 92 91 90 88 87 86 84 83 82 80 78 78 80 84 86 86 85 83 82 80 77 77 76 74 72 70 70 68 65 64 63 62 62 63 63 60 57 55 57 59 59 57 55 54 55 56 56 57 57 55 54 55 57 60 61 61 62 62 60 56 53 52 52 51 50 50 49 47 46 46 44 43 42 41
34 37 42 47 52 58 64 69 74 79 81 84 88 91 92 91 91 90 89 89 87 86 85 83 81 79 77 79 82 85 87 86 84 83 81 80 79 78 75 73 73 71 68 68 67 65 65 64 61 57 55 55 57 58 58 59 58 57 57 58 59 58 57 55 53 52 54 58 59 59 61 62 60 59 56 54 52 50 50 51 50 49 48 47 46 44 43 42
31 32 34 39 43 47 53 58 64 70 73 75 80 85 89 89 90 90 89 90 91 89 88 86 84 81 78 77 78 80 84 87 86 85 84 82 81 80 78 77 76 73 73 73 70 68 67 64 60 57 56 57 56 56 56 57 59 59 59 60 60 58 57 55 53 51 52 55 58 58 61 63 61 60 58 55 52 51 51 52 51 51 49 48 47 46 45 44
28 28 29 31 35 38 42 45 50 59 64 66 69 75 81 82 83 86 86 89 93 92 90 88 87 84 81 78 78 78 80 83 86 86 85 84 82 82 81 80 78 77 77 75 72 72 69 64 61 59 59 59 58 57 56 56 57 59 60 61 60 58 57 56 54 52 53 55 57 59 63 65 61 60 59 55 53 52 51 52 52 51 50 49 49 47 46 45
24 26 27 28 30 32 33 35 39 46 55 58 58 63 71 72 70 71 74 81 90 93 92 90 91 87 83 81 81 80 79 80 82 83 84 84 83 83 83 82 82 82 80 77 76 76 72 68 66 64 63 62 61 60 59 58 58 58 58 58 58 58 58 58 57 56 56 57 58 59 64 68 64 60 60 57 55 54 52 52 52 51 50 50 49 47 46 46
21 23 25 26 27 28 29 31 33 38 46 50 50 52 60 64 62 57 59 69 82 94 93 90 93 89 84 84 83 81 82 82 79 79 81 83 84 84 85 85 85 84 81 79 80 80 75 72 70 69 68 66 65 64 61 60 61 60 58 56 56 57 57 59 59 59 60 59 60 59 63 69 68 63 61 59 56 54 53 53 52 50 50 50 48 47 46 45
21 19 21 23 23 25 27 28 29 33 38 41 44 47 52 57 56 52 51 56 72 91 93 90 93 89 85 86 84 83 85 82 78 79 79 79 80 83 85 87 86 85 84 82 83 82 78 76 76 74 72 70 70 67 64 62 64 62 58 56 56 56 57 58 59 60 60 61 63 62 63 70 72 67 63 61 57 55 53 52 52 50 49 49 48 47 46 45
22 19 17 19 22 22 23 26 27 29 32 35 39 44 50 50 48 48 49 52 64 81 86 88 92 89 87 88 86 86 86 81 78 79 77 76 77 79 82 85 85 85 85 86 86 83 80 78 78 77 76 75 72 68 65 64 64 62 59 58 57 58 59 60 60 61 61 63 66 65 64 70 75 71 66 63 60 57 54 51 50 48 47 48 48 46 46 46
22 20 17 16 18 18 21 24 24 26 28 29 32 39 46 46 45 46 50 55 59 65 72 79 87 90 90 89 88 88 86 84 82 79 76 77 78 77 77 81 83 84 84 85 85 84 82 81 79 79 80 76 71 68 68 67 66 64 63 63 61 62 63 63 64 63 64 67 68 66 64 69 76 74 69 66 63 60 56 51 48 47 46 47 47 46 45 46
21 20 19 16 13 13 18 20 21 25 26 25 28 34 39 42 44 47 53 57 53 55 60 62 72 87 90 88 87 87 86 86 86 82 78 79 78 75 74 75 77 78 80 82 84 85 84 84 82 82 82 78 74 73 72 71 70 69 69 68 68 68 67 67 68 67 68 71 69 67 63 65 74 77 72 68 65 62 59 53 49 48 47 47 47 47 46 47
21 20 20 18 14 12 14 17 20 24 23 25 30 34 36 38 42 47 54 53 49 56 60 53 57 70 79 84 86 85 85 85 86 85 82 81 80 77 75 73 71 72 73 75 80 85 85 87 88 86 84 81 78 77 76 75 74 73 73 72 72 71 70 71 71 71 74 73 69 67 64 65 72 76 72 68 63 60 59 56 52 50 49 49 48 48 48 48
21 21 20 19 18 15 11 13 20 24 24 26 31 34 36 39 44 50 49 45 46 55 57 53 55 59 64 73 79 81 83 84 85 85 83 82 82 80 77 75 74 74 72 71 74 79 83 87 88 86 85 83 82 81 79 78 76 76 76 75 76 75 74 74 74 75 76 74 71 68 66 69 71 69 67 65 61 58 57 56 54 51 50 51 51 50 50 50
22 22 21 21 19 17 13 12 19 24 25 27 30 33 37 41 45 48 46 44 47 50 48 50 56 60 62 64 67 72 78 82 84 82 80 78 79 80 79 76 74 74 73 72 73 74 79 83 83 85 86 84 84 83 82 81 79 78 78 78 78 77 77 77 76 77 77 74 71 69 69 72 69 63 62 61 59 57 54 54 53 51 49 50 51 52 52 52
24 24 23 22 21 19 16 14 17 22 26 30 32 33 38 44 45 43 44 47 48 46 44 44 46 52 60 61 60 63 67 75 82 82 78 75 74 77 78 76 75 72 71 72 73 74 79 83 84 86 86 84 84 83 81 80 78 77 75 75 77 77 77 78 77 77 76 73 72 72 74 74 66 61 60 59 58 57 55 54 53 51 50 49 49 51 52 54
25 25 26 24 22 21 17 16 17 20 25 29 34 36 41 45 44 43 43 44 46 47 46 43 39 42 51 55 55 55 57 62 69 75 78 76 74 76 76 75 74 73 71 71 72 72 74 80 82 82 82 81 81 79 79 79 78 77 75 75 77 77 77 77 78 78 76 76 76 77 77 74 66 62 61 60 60 60 58 57 54 53 52 51 50 49 51 53
25 26 27 26 25 23 20 19 18 19 23 28 35 39 43 45 44 43 41 39 43 48 49 48 44 41 42 47 52 53 54 55 56 63 71 72 72 73 74 74 72 72 72 71 72 71 69 73 77 78 78 80 79 76 75 76 76 76 78 79 79 78 78 77 78 78 78 80 80 80 78 73 69 66 63 62 62 61 60 59 56 55 54 53 52 51 51 52
25 25 26 26 26 26 25 23 22 21 21 26 29 28 32 41 45 43 41 39 42 45 50 54 52 46 37 37 45 49 50 55 56 58 62 62 64 69 71 73 71 69 69 69 69 70 69 70 73 73 73 75 75 74 72 71 71 72 75 75 73 73 74 73 75 78 79 82 83 82 79 75 74 71 64 63 63 62 62 61 59 58 56 54 53 53 53 52
25 26 26 25 25 28 30 29 28 25 23 26 27 24 22 30 39 44 43 41 42 42 48 55 56 52 43 32 34 39 43 49 55 57 58 56 58 63 67 69 70 69 66 65 66 68 69 69 71 71 69 68 68 68 68 70 72 74 75 72 68 69 70 71 76 79 80 82 83 83 82 79 77 72 66 65 64 63 64 63 62 61 58 56 55 55 55 54
26 28 28 24 24 28 32 33 31 29 30 30 28 25 22 23 30 43 45 43 45 44 46 53 54 55 52 38 30 33 38 42 46 52 57 56 53 53 57 61 64 66 65 64 65 66 66 67 69 70 69 67 66 64 65 70 73 75 74 70 65 66 70 73 76 77 78 80 82 84 85 83 77 71 69 69 67 66 66 64 63 63 61 60 59 58 56 55
27 30 29 23 23 26 31 36 35 34 34 32 29 27 23 21 24 37 44 46 49 48 47 50 52 56 58 48 35 34 38 39 39 44 50 54 52 48 47 50 55 59 59 61 63 63 63 64 65 65 64 64 65 66 67 69 70 69 67 64 62 63 69 73 76 77 78 80 82 85 87 84 76 73 72 70 68 68 66 64 64 64 63 63 62 61 59 58
28 30 27 22 23 24 29 36 36 35 36 33 30 28 23 18 20 27 38 46 51 52 50 48 51 56 59 57 47 40 41 41 40 42 43 45 49 50 48 45 46 51 54 57 61 61 62 61 61 62 63 64 64 64 63 62 63 62 60 60 60 60 65 69 73 76 77 80 82 83 86 84 77 74 72 69 67 66 65 64 64 63 63 64 64 63 62 61
27 29 26 23 24 24 27 33 33 34 35 32 30 29 25 21 20 21 30 42 49 53 52 51 52 54 57 61 56 49 48 46 43 44 45 42 42 46 47 44 41 42 46 51 55 56 59 61 61 63 64 64 63 62 60 58 57 58 58 59 59 60 63 65 69 71 71 73 74 74 81 83 76 73 73 70 68 67 66 65 64 63 64 64 65 65 64 63
27 28 26 25 25 25 28 31 32 33 33 31 30 29 27 25 22 21 26 36 46 52 54 54 54 53 54 59 61 56 53 51 46 43 45 46 40 36 39 43 43 41 41 45 47 51 57 61 64 66 65 65 63 61 61 60 60 62 62 61 62 64 64 63 65 64 63 66 66 68 78 83 77 74 73 71 70 69 68 67 64 63 64 64 65 65 64 63
27 28 27 25 24 26 31 33 33 32 31 30 29 29 30 28 25 24 24 29 41 50 54 55 54 54 53 54 60 59 55 56 54 46 44 47 44 35 33 38 44 46 46 44 44 48 54 59 62 66 68 67 65 62 62 62 62 64 64 63 63 63 62 62 61 60 63 67 68 71 81 84 79 77 74 71 71 71 69 69 66 63 62 63 64 64 64 63
27 28 28 28 26 28 31 32 33 33 33 33 30 29 31 32 29 27 25 27 34 43 51 54 54 56 55 53 57 59 55 54 57 55 49 46 45 42 38 38 42 46 48 46 44 45 49 54 59 63 68 69 68 68 68 66 64 64 64 63 61 60 60 62 63 64 68 70 70 74 79 79 76 77 75 74 74 72 69 69 67 64 63 62 61 61 61 61
27 28 28 29 29 28 28 28 30 32 33 34 34 31 30 32 32 29 26 26 28 34 43 50 53 56 58 57 58 59 56 52 53 57 55 50 47 45 42 39 40 41 43 45 49 48 48 52 56 60 65 67 67 66 66 66 66 64 63 61 60 60 60 61 64 67 67 67 71 74 74 73 72 71 71 73 73 70 68 67 66 65 64 62 61 60 60 60
26 27 26 28 29 28 25 24 25 28 29 31 34 34 31 32 32 30 27 27 27 30 38 46 54 59 60 58 58 59 59 57 55 54 54 54 51 46 42 39 37 37 38 41 47 50 50 51 53 55 60 62 62 62 62 64 65 64 63 61 59 60 59 61 65 64 61 65 70 69 67 69 69 65 65 67 67 66 65 64 63 63 63 62 62 62 63 64
24 26 26 28 28 27 25 23 23 26 29 30 32 34 35 35 32 30 28 28 28 29 32 37 45 55 60 59 58 56 55 58 60 57 55 55 53 48 44 41 37 37 39 40 44 49 52 53 51 51 53 54 55 57 60 63 64 63 63 63 62 62 62 62 63 61 60 65 67 61 60 65 66 66 65 63 63 63 62 62 62 61 61 61 61 62 64 65
23 25 27 28 28 27 27 25 25 27 28 29 31 33 36 37 34 32 31 31 30 28 28 29 31 41 54 60 61 59 55 54 58 58 58 56 53 50 49 45 39 38 40 42 44 48 52 52 50 49 51 51 51 52 54 58 62 61 60 61 61 62 64 64 63 61 61 63 62 59 60 62 64 68 69 66 66 67 67 67 66 64 61 59 60 62 63 64
25 25 27 29 29 28 29 28 27 28 29 30 32 32 33 37 38 37 36 34 31 30 32 29 26 32 48 57 61 62 57 53 52 52 55 57 54 52 53 50 43 40 41 43 44 48 51 52 50 49 51 52 51 51 52 55 57 58 58 58 58 59 61 64 64 62 62 63 62 61 64 65 63 64 66 66 66 69 71 72 70 66 64 63 64 65 64 63
28 26 28 30 29 28 31 31 30 29 30 32 33 31 33 36 37 38 40 39 36 34 34 31 27 31 45 55 60 62 59 55 51 46 47 53 54 53 54 53 50 47 45 43 43 47 50 50 49 50 53 54 52 52 54 54 55 58 58 56 56 57 58 59 60 59 60 61 61 63 66 66 60 58 60 61 62 64 67 68 67 65 65 66 66 66 64 62
30 28 27 29 30 30 33 35 33 32 32 32 32 31 34 35 34 38 42 40 38 36 35 35 32 34 42 49 53 56 56 55 52 47 46 50 52 54 56 57 57 57 55 50 46 46 48 48 49 49 51 53 51 51 52 54 58 62 59 54 53 54 54 55 56 56 56 57 60 63 63 59 54 52 54 55 56 60 62 62 62 62 63 65 67 67 66 65
Wind_Direction
249 249 249 250 251 251 251 251 251 250 250 247 243 240 238 238 240 240 240 240 240 239 238 237 235 234 233 233 233 234 234 234 234 234 235 235 232 231 230 230 229 228 227 227 228 228 228 228 227 227 228 231 233 234 237 238 238 239 241 241 240 240 243 247 247 243 238 233 230 228 226 226 229 234 235 234 236 237 235 236 238 238 240 239 237 238 239 241
250 249 248 248 248 249 250 250 250 249 249 249 248 245 242 239 238 239 240 240 241 240 240 239 238 236 235 233 233 234 234 234 234 234 236 235 234 234 233 231 231 229 227 227 228 229 229 229 228 227 227 229 231 233 236 238 238 239 241 242 241 242 243 245 247 245 240 237 232 227 223 222 224 231 237 237 237 237 234 231 232 234 237 239 238 239 238 237
250 250 249 247 247 247 248 249 249 249 248 248 248 248 246 243 241 239 239 240 240 240 240 240 239 239 237 235 234 233 233 234 234 235 235 235 235 235 235 234 232 231 229 227 227 229 229 230 230 229 228 227 229 232 235 237 238 239 241 242 241 242 242 244 247 247 244 240 236 231 224 220 221 227 234 237 236 235 234 231 230 231 235 239 240 243 244 239
252 251 250 248 247 246 246 247 247 248 248 247 247 247 247 246 245 242 241 240 239 240 240 240 240 240 239 237 236 234 233 233 234 235 235 234 235 235 235 235 234 232 231 229 228 228 229 230 230 231 230 228 228 230 234 237 238 239 240 240 240 241 242 244 247 248 247 243 240 236 229 222 220 224 231 235 234 233 234 234 233 231 233 236 238 242 246 245
253 252 251 250 248 247 245 245 245 246 247 247 247 246 246 246 246 246 244 242 241 239 239 240 240 240 240 239 238 236 234 234 233 234 235 235 234 234 235 235 235 235 233 231 230 229 229 230 231 231 231 230 228 230 232 235 238 239 238 238 238 240 242 244 246 248 249 246 243 240 235 229 224 225 230 235 236 235 234 235 234 233 233 233 233 234 240 244
253 253 252 251 249 248 247 245 244 244 245 246 246 246 246 245 246 246 246 245 244 242 240 240 240 240 240 239 239 237 236 236 234 234 236 236 235 234 235 235 235 236 235 234 232 230 230 230 230 232 232 231 230 229 231 234 237 238 237 237 238 240 242 244 246 247 249 249 247 244 239 234 230 228 230 235 240 240 237 236 234 234 236 234 232 232 233 238
253 252 252 251 251 249 248 246 245 244 244 244 245 245 245 245 245 245 245 246 246 245 243 241 240 240 239 239 239 238 237 237 237 236 236 236 236 235 235 235 235 236 236 235 234 232 231 231 231 231 232 232 231 230 231 233 235 237 238 237 238 240 241 243 245 247 249 250 250 247 243 239 236 232 231 235 242 246 241 236 234 233 236 237 235 234 232 232
253 252 251 250 250 250 249 248 246 244 243 243 243 244 245 245 244 244 244 245 245 245 245 244 243 242 240 238 237 238 237 238 240 238 237 237 237 236 236 236 236 236 236 236 235 234 233 232 231 231 232 233 233 232 231 232 234 235 237 237 238 239 240 243 245 246 248 250 250 250 247 244 240 235 232 234 241 248 246 239 235 234 236 237 236 237 235 233
253 251 251 250 249 249 249 249 247 246 244 243 242 242 243 244 244 243 243 243 244 245 245 245 245 244 242 239 237 236 235 238 240 239 238 238 237 237 237 236 236 236 236 236 236 235 234 233 232 232 232 233 233 233 233 233 233 234 235 236 238 238 240 242 244 245 247 248 250 250 249 248 244 236 230 233 239 246 249 246 239 236 238 239 237 237 238 238
254 251 250 249 249 248 248 248 248 247 246 244 243 242 242 242 243 243 243 242 243 243 244 244 245 245 244 241 237 234 233 237 240 239 239 238 238 238 237 237 236 236 236 236 237 236 236 235 234 233 233 233 233 233 234 234 234 234 234 235 237 238 239 241 244 245 245 247 248 250 250 249 247 239 228 233 239 242 245 247 246 240 238 241 241 238 237 239
254 252 250 249 248 248 247 247 247 247 247 246 244 242 241 241 241 242 242 242 242 242 242 243 243 244 244 242 238 232 231 236 239 238 238 238 238 238 238 237 237 236 236 236 237 237 236 236 235 234 234 234 234 234 234 234 235 235 234 234 235 237 238 240 242 244 245 245 247 249 249 248 247 242 234 236 238 239 241 243 247 246 242 241 243 244 242 241
253 252 251 249 247 246 246 246 246 246 246 246 245 244 242 241 241 241 241 241 241 241 241 241 242 243 244 243 238 233 231 235 238 239 238 238 238 238 238 238 237 237 236 236 237 237 237 236 235 235 235 234 235 235 235 235 235 235 235 234 234 236 237 239 241 243 245 245 245 248 248 247 248 247 244 242 240 240 241 242 245 248 248 244 242 244 246 248
251 250 250 249 247 246 245 245 245 245 245 245 245 244 243 242 241 240 240 240 241 241 241 241 241 241 242 242 237 235 234 234 237 239 239 239 239 238 238 238 238 237 237 237 237 237 237 237 236 236 235 235 235 236 236 235 235 236 236 235 235 235 236 238 240 242 244 246 245 247 248 246 247 249 247 246 244 243 243 244 245 246 248 248 245 243 244 248
248 248 247 247 246 245 244 244 243 243 243 244 244 244 243 243 242 241 240 240 240 240 240 241 241 241 242 240 237 237 236 234 236 238 240 241 241 240 240 239 239 238 238 238 237 237 237 237 237 237 236 235 235 236 236 236 236 236 237 236 236 236 237 237 240 242 243 245 246 247 247 244 244 248 248 247 247 246 243 243 245 246 246 247 247 246 244 246
245 245 244 244 245 244 243 242 242 241 241 242 242 243 242 242 242 241 241 240 239 240 240 240 241 242 242 241 238 238 237 235 236 238 239 241 242 242 242 241 240 239 239 238 238 238 237 237 237 237 237 236 236 236 236 236 237 237 238 238 238 238 238 237 239 242 243 244 245 246 247 245 242 246 248 248 247 247 246 243 243 245 246 246 246 246 246 245
243 242 241 241 241 242 241 241 240 240 240 240 240 241 241 241 241 241 241 240 240 239 239 239 240 241 242 241 239 239 238 236 235 237 238 239 240 242 242 241 241 240 240 239 238 238 237 237 237 236 236 236 236 236 237 236 236 237 238 239 239 239 239 238 238 240 242 243 243 245 248 246 242 242 246 248 247 246 246 244 242 243 245 247 248 247 246 246
242 240 239 238 238 238 239 239 238 238 238 238 238 239 240 240 240 240 240 240 240 239 239 239 239 240 241 240 239 239 238 236 235 236 238 238 239 240 241 241 240 240 240 239 238 238 238 237 237 236 236 236 236 237 237 237 237 237 239 240 241 241 240 239 240 241 242 243 244 245 247 246 241 239 241 245 246 246 246 245 244 243 245 246 249 250 249 248
243 240 238 237 236 236 236 236 236 236 236 237 237 237 237 238 238 239 239 239 239 239 239 238 238 239 239 239 239 240 239 237 235 236 237 237 238 239 240 240 240 240 240 239 238 238 238 238 237 237 236 236 236 236 238 238 239 239 240 240 241 242 241 240 240 241 241 242 243 244 246 246 242 238 239 242 245 247 248 248 246 245 245 246 248 250 251 251
245 243 240 237 236 234 233 234 234 234 234 234 235 235 235 236 237 237 238 238 238 238 239 239 239 239 239 239 239 239 239 238 235 235 236 237 237 238 239 240 241 240 240 240 239 239 238 238 238 237 236 237 237 238 240 240 240 239 239 239 240 241 241 241 241 241 241 242 243 244 246 247 245 241 239 241 243 246 248 249 250 249 248 246 246 248 249 251
249 246 243 240 237 235 233 232 232 232 232 231 232 233 234 234 235 235 237 237 237 238 239 239 239 239 239 240 240 240 240 239 237 236 236 236 237 238 238 240 241 241 241 241 241 240 240 239 238 237 238 239 240 240 241 241 240 239 239 238 238 239 240 241 242 242 242 242 243 244 246 247 246 243 240 240 242 244 247 249 251 253 253 250 248 247 248 249
256 250 246 244 240 237 235 233 231 231 231 230 229 230 232 233 233 234 235 236 236 237 237 237 238 238 238 239 239 240 240 239 239 238 237 237 238 238 238 239 241 242 242 242 242 242 241 240 238 238 239 240 240 240 240 240 240 239 239 239 238 238 238 240 241 242 243 243 242 243 244 245 246 245 242 241 241 244 247 249 250 252 253 253 252 250 249 248
264 257 251 247 244 241 238 235 232 230 231 230 229 229 230 231 232 232 233 234 234 235 236 236 236 236 237 238 238 239 239 239 238 238 237 236 237 238 238 239 240 242 242 243 243 243 242 240 239 239 241 240 240 241 241 241 241 240 240 239 239 239 239 239 242 244 245 245 243 243 243 243 244 245 244 243 243 243 245 248 250 250 251 252 253 253 251 250
270 265 258 251 247 244 241 239 235 232 231 232 230 228 228 229 230 231 231 233 233 233 234 234 235 235 235 237 238 238 239 239 238 238 237 236 236 238 238 238 240 241 241 242 243 244 243 241 241 242 242 242 242 243 244 243 243 243 242 242 241 241 242 242 243 244 246 247 245 244 243 242 242 244 244 245 244 243 243 246 248 249 250 251 252 253 253 252
274 270 266 258 251 246 243 242 239 234 232 233 232 230 228 229 230 230 231 232 232 231 232 233 234 233 232 234 236 237 238 239 239 239 238 237 236 237 238 238 239 240 241 242 243 244 244 243 243 243 243 243 244 244 244 244 244 243 243 243 243 244 244 245 245 246 246 247 247 247 245 241 240 242 242 243 244 243 242 244 246 248 250 251 252 253 253 253
280 272 271 267 258 250 246 245 242 237 234 234 234 232 230 230 230 231 232 233 232 230 231 232 232 232 232 232 233 235 236 237 238 239 238 238 237 237 238 238 238 239 240 241 243 243 243 243 243 243 243 243 243 243 243 244 244 244 244 244 245 245 246 247 248 248 247 245 245 248 248 242 238 241 242 241 242 243 243 243 245 247 248 249 250 252 252 252
301 280 273 270 263 255 252 247 242 239 235 234 235 233 231 231 230 230 233 236 234 229 229 231 232 232 232 232 233 234 235 235 236 238 238 237 237 237 237 238 238 239 239 240 241 242 242 243 243 243 242 243 243 242 242 243 244 243 242 243 245 246 247 248 249 250 248 246 245 247 250 245 238 237 240 240 241 242 243 243 244 245 247 248 249 250 251 251
333 303 281 272 267 260 255 249 242 239 236 233 234 232 231 231 230 229 232 239 237 230 228 231 231 231 232 233 234 234 235 235 236 238 238 238 237 237 237 237 238 238 238 239 239 240 240 241 242 243 242 242 242 242 242 243 245 245 244 246 248 249 249 250 251 252 251 249 246 245 248 247 241 237 237 239 240 241 242 243 244 244 246 248 248 249 249 249
350 333 304 279 271 267 257 250 243 239 235 232 231 231 230 231 230 227 229 238 238 232 230 231 231 231 231 232 232 233 235 236 236 238 239 239 238 237 237 238 238 239 239 239 239 239 240 241 242 243 243 243 243 244 245 246 248 248 248 249 250 250 251 251 252 252 252 250 247 244 246 248 245 240 237 237 239 240 241 242 243 244 245 247 248 248 248 248
349 347 335 301 282 274 261 253 246 239 237 234 232 232 231 230 228 224 226 234 235 231 232 233 232 230 230 231 232 233 234 235 234 235 237 239 239 238 238 238 239 240 240 240 241 240 240 241 242 243 244 244 244 245 246 247 248 248 249 249 249 249 250 250 251 250 251 250 245 243 245 247 246 243 240 238 237 239 240 240 242 244 244 246 247 247 246 247
338 341 344 331 306 280 264 256 246 239 237 235 232 232 230 228 225 223 227 232 231 228 230 232 232 231 231 231 232 233 234 234 235 234 234 236 237 237 237 237 238 239 240 241 241 241 241 241 240 241 242 243 242 242 243 244 244 245 245 246 246 246 246 248 249 249 250 248 244 243 245 247 247 244 242 240 238 239 240 239 240 241 243 245 246 247 247 247
328 328 335 338 329 305 280 259 247 241 236 229 227 227 226 224 222 223 228 231 231 230 229 229 230 231 231 232 233 233 234 235 236 235 235 236 236 236 235 234 234 235 237 239 240 241 241 241 241 241 241 242 241 241 241 242 243 243 244 245 246 246 246 247 248 248 249 247 245 245 245 247 247 244 243 243 241 241 243 242 241 240 242 244 245 247 247 248
318 317 322 327 329 327 307 263 249 245 238 230 225 222 223 225 224 223 226 227 230 232 230 229 231 230 230 231 232 233 233 235 236 237 237 237 237 237 236 235 234 234 234 235 237 238 240 241 242 241 241 241 242 242 242 242 243 243 244 245 246 247 247 247 248 248 250 249 248 248 248 249 248 245 246 248 246 245 245 245 245 242 241 243 244 245 246 248
311 312 312 313 317 323 316 276 252 246 239 231 227 222 223 228 228 226 225 223 225 229 229 230 233 232 232 232 232 232 232 233 234 236 238 238 238 238 237 237 236 236 237 238 238 238 239 240 241 241 240 240 241 242 242 243 244 244 245 246 247 248 248 249 249 250 251 252 252 253 252 253 251 247 247 250 250 249 247 246 246 245 244 243 244 245 246 247
305 305 305 306 306 309 310 294 269 254 241 231 228 228 227 230 231 228 227 224 223 225 225 227 233 233 233 234 234 234 233 233 234 234 235 237 238 238 237 236 235 235 237 239 239 240 241 242 243 244 243 242 242 243 244 245 246 246 247 248 249 250 251 253 253 254 255 255 256 256 255 255 252 249 249 250 251 252 251 248 247 245 245 244 243 244 246 247
301 299 299 300 299 298 297 291 280 262 248 236 233 234 232 232 231 229 228 225 223 222 219 220 225 231 234 234 233 234 234 234 234 234 235 235 236 237 237 237 236 235 234 235 237 239 241 244 245 247 247 246 246 246 246 246 246 246 247 247 249 250 251 253 253 254 255 255 255 254 254 254 251 249 249 250 250 250 250 250 249 248 248 246 244 244 244 246
295 291 291 294 294 289 282 281 278 264 253 241 237 240 239 234 231 231 230 227 224 221 217 216 216 222 233 234 232 232 233 233 232 233 235 236 237 236 236 237 237 237 236 236 237 238 240 243 244 245 246 246 246 246 246 246 246 247 247 247 249 250 250 251 253 254 255 255 254 254 254 254 253 251 248 249 250 251 251 252 252 252 251 251 249 248 248 247
289 287 286 288 287 281 275 272 267 263 256 244 249 264 256 242 235 232 230 228 227 222 218 217 215 215 223 234 236 235 234 235 233 232 234 236 236 236 236 236 236 237 237 238 239 240 241 244 245 245 245 246 247 246 245 244 245 246 247 248 249 250 250 251 253 254 254 255 254 254 254 253 252 250 248 249 251 252 254 255 255 255 255 254 254 254 254 251
287 286 282 282 283 278 272 267 261 263 260 256 275 297 281 256 244 234 229 228 228 226 222 220 218 215 214 221 234 237 237 236 233 232 234 235 236 236 235 236 236 236 236 236 237 238 240 243 244 245 246 246 246 246 244 244 244 245 246 246 245 246 247 249 250 251 253 255 255 254 254 252 251 250 250 251 252 253 255 257 258 259 259 258 257 256 255 254
288 285 280 280 280 275 269 264 260 259 262 271 289 298 289 280 256 235 230 229 228 227 226 223 220 219 216 213 222 232 236 237 234 233 234 235 237 237 236 237 237 237 236 235 235 236 238 241 243 244 245 245 245 244 243 244 245 245 244 243 241 243 245 247 248 250 252 254 254 254 253 251 250 250 251 252 252 253 254 255 258 260 260 260 259 258 257 256
286 281 277 276 273 271 268 261 257 261 271 282 290 289 291 295 269 241 232 230 229 228 227 225 221 220 218 216 219 226 232 235 235 235 236 236 236 235 235 236 237 237 236 235 235 235 236 239 242 243 243 244 243 242 243 245 246 245 243 242 240 242 245 246 247 248 249 251 252 252 253 251 250 250 250 251 252 254 256 256 258 260 261 262 262 262 260 259
281 277 276 274 269 269 265 261 262 268 277 282 279 278 287 295 282 256 238 232 230 229 228 226 224 222 219 217 218 224 231 234 234 235 238 239 237 234 232 233 236 237 236 234 234 234 234 236 240 243 243 243 244 244 244 245 246 247 247 246 245 245 247 248 249 249 250 252 253 255 257 255 253 254 255 255 256 258 259 259 260 261 262 262 263 262 261 260
277 275 274 270 267 267 263 263 266 269 272 277 276 273 278 284 285 272 251 238 233 231 230 227 226 225 221 218 219 224 230 233 234 236 238 239 240 237 233 233 234 237 237 236 236 236 235 235 236 239 242 244 245 245 244 242 244 247 247 247 247 247 246 247 249 250 251 254 255 258 259 255 252 254 256 256 256 256 257 257 257 258 259 259 260 260 261 260
274 273 269 265 267 267 262 260 263 267 274 278 277 272 269 272 275 269 258 245 236 233 232 229 227 226 222 220 221 225 230 231 232 236 238 238 239 237 234 231 229 231 234 234 233 232 232 232 233 235 239 242 244 245 246 244 244 244 244 244 245 246 246 246 248 249 250 253 254 255 257 253 250 252 254 254 255 255 255 255 255 255 256 257 258 259 260 260
272 270 267 265 265 262 259 261 265 272 279 279 276 271 265 265 271 271 265 252 240 235 234 232 229 227 225 223 222 225 231 234 232 233 235 234 233 233 232 230 227 227 229 231 230 229 230 231 232 233 235 237 238 240 242 242 242 242 243 243 244 246 246 245 246 247 248 250 251 252 254 253 252 253 253 254 255 255 255 256 255 255 255 256 257 258 259 261
267 266 267 266 265 262 262 267 270 272 274 273 271 268 262 261 266 271 270 262 249 239 235 233 230 229 228 228 226 225 228 234 234 233 234 231 227 227 230 229 227 227 227 229 230 229 230 231 232 232 233 234 234 234 237 240 241 242 242 242 242 243 245 245 246 246 247 248 249 251 253 254 253 254 253 253 255 255 256 258 258 258 258 258 259 260 261 262
263 262 264 267 270 272 270 269 268 268 269 268 264 261 260 258 261 265 267 266 261 249 239 233 230 230 230 230 230 227 226 230 232 233 235 232 226 224 225 226 228 230 228 228 231 231 230 231 231 232 233 235 235 236 239 242 244 244 244 244 245 246 247 248 249 248 249 251 251 252 255 255 253 253 254 254 256 257 257 259 260 261 262 262 261 261 261 261
263 263 267 270 273 277 278 275 272 272 271 268 262 257 255 255 257 261 262 263 262 256 246 238 232 231 231 230 231 230 229 230 231 232 234 233 228 224 222 220 223 230 231 231 234 236 235 236 235 235 236 236 237 237 239 241 244 245 246 245 246 247 248 249 250 251 252 254 254 253 256 257 254 252 254 255 257 259 259 259 259 260 260 260 259 259 259 259
261 265 268 270 272 276 281 282 280 280 277 273 267 259 250 248 252 257 259 259 258 256 252 247 239 234 232 230 232 233 232 232 233 232 232 232 229 225 221 214 214 223 227 229 233 235 237 239 238 240 241 240 239 238 238 241 244 245 245 245 243 244 246 247 248 250 250 252 254 254 254 256 253 250 250 252 254 257 257 257 256 256 255 255 256 256 257 258
249 259 264 267 271 275 279 279 278 279 279 276 272 265 254 250 254 258 258 257 259 260 257 254 251 242 234 231 233 234 233 232 233 232 233 233 230 228 225 218 217 222 222 224 231 235 238 239 237 239 243 241 240 240 239 241 244 244 244 244 243 243 244 245 246 247 248 250 252 252 251 252 250 248 247 248 250 252 253 254 253 253 253 254 254 255 256 257
240 250 260 264 266 269 272 275 276 277 278 275 273 269 260 255 255 257 258 259 263 263 258 260 265 252 238 234 235 236 234 234 235 234 234 234 233 232 230 226 226 228 223 223 230 233 236 238 236 239 245 242 239 241 240 241 244 245 244 244 244 244 244 244 245 245 247 249 249 249 249 248 247 247 248 248 249 250 251 252 252 251 252 253 254 254 254 253
240 243 252 260 262 264 267 271 274 276 279 281 280 275 265 258 256 255 255 257 261 262 262 268 270 255 243 238 238 237 236 236 238 238 236 235 234 234 235 232 232 233 230 227 228 230 233 236 235 239 246 245 240 241 242 242 244 245 243 242 242 243 244 245 245 245 246 248 249 249 249 249 249 250 251 250 250 251 252 253 254 254 254 254 254 254 253 253
245 245 248 256 260 264 267 268 269 275 283 287 286 278 268 261 257 254 253 254 257 261 264 264 261 251 244 242 241 239 238 238 239 239 240 238 235 234 235 234 233 234 234 231 228 227 228 230 231 235 243 244 240 240 241 242 243 244 241 241 244 246 247 247 247 245 246 247 249 250 251 252 252 253 253 251 250 252 253 255 257 257 256 255 254 254 255 256
Height
5708 5710 5712 5714 5715 5716 5718 5720 5722 5724 5726 5728 5730 5732 5734 5736 5738 5740 5743 5746 5748 5751 5754 5757 5760 5763 5765 5768 5771 5774 5777 5780 5783 5787 5789 5789 5793 5799 5801 5803 5806 5809 5813 5815 5817 5818 5820 5822 5824 5827 5829 5830 5832 5833 5834 5835 5836 5837 5838 5839 5842 5844 5844 5844 5844 5845 5847 5849 5850 5852 5853 5854 5855 5856 5856 5857 5857 5858 5858 5859 5860 5861 5861 5862 5862 5863 5863 5863
5701 5703 5705 5707 5709 5711 5713 5714 5716 5718 5720 5722 5724 5727 5729 5731 5733 5735 5738 5740 5742 5745 5748 5751 5754 5757 5760 5763 5766 5769 5772 5775 5779 5782 5783 5785 5790 5794 5796 5799 5801 5805 5808 5811 5813 5815 5817 5818 5821 5823 5825 5827 5829 5830 5830 5832 5834 5835 5836 5838 5841 5842 5842 5841 5841 5843 5845 5847 5849 5850 5852 5853 5854 5854 5855 5856 5856 5856 5857 5857 5858 5859 5860 5861 5861 5862 5862 5862
5693 5695 5698 5700 5703 5705 5707 5709 5710 5712 5715 5717 5719 5721 5724 5726 5728 5731 5733 5735 5737 5740 5742 5745 5748 5751 5754 5758 5761 5764 5767 5771 5774 5776 5778 5781 5785 5788 5791 5794 5796 5800 5803 5806 5808 5810 5812 5815 5816 5818 5821 5823 5826 5826 5827 5829 5831 5832 5833 5836 5840 5839 5838 5838 5839 5841 5843 5845 5847 5848 5850 5851 5852 5853 5854 5855 5855 5855 5856 5856 5857 5857 5858 5859 5861 5861 5862 5862
5686 5688 5690 5692 5695 5698 5701 5703 5704 5706 5709 5711 5713 5715 5718 5720 5723 5725 5727 5730 5732 5734 5737 5739 5742 5745 5748 5752 5756 5758 5762 5766 5769 5771 5773 5776 5779 5783 5786 5788 5791 5795 5797 5801 5804 5806 5808 5810 5812 5814 5817 5820 5822 5823 5824 5826 5827 5829 5831 5834 5836 5835 5835 5837 5837 5838 5840 5842 5844 5846 5848 5850 5851 5852 5853 5853 5854 5854 5854 5855 5856 5856 5857 5858 5859 5860 5861 5861
5680 5681 5683 5685 5687 5690 5693 5696 5698 5700 5702 5705 5707 5709 5712 5714 5717 5720 5722 5724 5727 5729 5732 5734 5737 5739 5742 5746 5749 5753 5757 5760 5764 5767 5768 5770 5774 5778 5781 5783 5786 5789 5793 5796 5799 5801 5804 5806 5808 5810 5812 5816 5818 5819 5821 5823 5823 5825 5829 5831 5832 5832 5833 5834 5834 5836 5837 5839 5842 5843 5846 5848 5849 5850 5851 5852 5852 5853 5853 5854 5855 5855 5856 5857 5858 5859 5859 5860
5674 5675 5676 5678 5680 5682 5685 5688 5691 5694 5696 5698 5701 5703 5706 5708 5711 5714 5716 5718 5721 5724 5726 5729 5731 5733 5736 5739 5743 5747 5751 5755 5759 5762 5763 5766 5770 5773 5775 5778 5781 5784 5787 5791 5794 5797 5799 5801 5804 5805 5808 5811 5814 5816 5818 5819 5819 5822 5825 5828 5829 5829 5830 5831 5832 5833 5835 5837 5839 5841 5843 5845 5847 5849 5849 5850 5851 5851 5852 5853 5854 5854 5854 5855 5856 5857 5858 5858
5667 5669 5670 5671 5672 5674 5677 5680 5683 5686 5689 5691 5694 5697 5699 5702 5705 5707 5710 5712 5715 5718 5721 5723 5725 5727 5730 5733 5738 5740 5745 5752 5754 5756 5759 5761 5764 5768 5770 5773 5776 5779 5782 5785 5788 5791 5794 5797 5799 5801 5803 5806 5809 5812 5814 5815 5816 5818 5822 5824 5825 5826 5827 5828 5829 5830 5832 5834 5836 5838 5840 5843 5845 5846 5847 5849 5849 5849 5851 5852 5852 5853 5853 5854 5855 5855 5856 5857
5660 5661 5663 5665 5666 5667 5669 5671 5675 5678 5681 5684 5687 5690 5692 5695 5698 5701 5704 5706 5709 5712 5714 5717 5719 5722 5723 5727 5732 5734 5742 5749 5746 5749 5754 5756 5759 5762 5765 5768 5771 5773 5776 5779 5782 5785 5789 5791 5794 5797 5799 5802 5805 5808 5810 5811 5812 5815 5818 5820 5821 5823 5823 5824 5825 5827 5830 5831 5833 5834 5837 5840 5842 5844 5846 5847 5847 5847 5848 5849 5850 5851 5852 5853 5853 5854 5855 5856
5651 5653 5655 5656 5659 5661 5662 5664 5666 5669 5673 5676 5680 5683 5686 5688 5691 5694 5697 5700 5702 5705 5709 5711 5713 5715 5717 5721 5725 5729 5741 5743 5738 5744 5749 5751 5754 5756 5759 5762 5765 5768 5771 5774 5777 5780 5783 5786 5789 5792 5794 5797 5800 5803 5805 5806 5808 5812 5814 5816 5817 5819 5820 5821 5822 5824 5826 5828 5829 5831 5833 5836 5838 5840 5844 5845 5845 5844 5845 5846 5848 5849 5850 5851 5852 5852 5853 5854
5642 5644 5646 5648 5651 5653 5655 5657 5659 5662 5664 5668 5671 5675 5678 5681 5684 5687 5690 5693 5695 5699 5702 5705 5707 5709 5711 5714 5718 5726 5738 5736 5733 5739 5742 5744 5748 5750 5753 5757 5759 5763 5765 5768 5771 5774 5777 5780 5783 5786 5789 5792 5794 5797 5800 5802 5804 5807 5810 5811 5813 5815 5817 5817 5818 5820 5822 5824 5826 5827 5830 5832 5832 5836 5842 5844 5842 5841 5842 5843 5844 5846 5848 5848 5850 5851 5852 5853
5631 5634 5637 5639 5642 5644 5647 5649 5652 5655 5657 5660 5663 5666 5670 5673 5676 5679 5683 5686 5689 5692 5695 5698 5700 5702 5705 5706 5711 5724 5734 5731 5729 5733 5735 5739 5742 5744 5748 5750 5754 5757 5760 5763 5765 5769 5772 5775 5778 5781 5784 5786 5790 5792 5794 5797 5800 5802 5805 5807 5809 5811 5813 5814 5815 5816 5817 5820 5822 5824 5825 5828 5828 5833 5841 5841 5838 5838 5839 5840 5841 5843 5845 5846 5848 5849 5850 5851
5621 5624 5627 5630 5633 5636 5638 5641 5644 5647 5649 5652 5654 5658 5661 5664 5668 5671 5675 5678 5681 5684 5688 5691 5693 5695 5698 5698 5706 5720 5727 5726 5724 5726 5730 5733 5736 5739 5742 5744 5748 5751 5754 5757 5760 5763 5766 5769 5773 5775 5778 5782 5785 5786 5789 5792 5794 5797 5799 5802 5805 5806 5808 5810 5812 5812 5813 5816 5819 5820 5820 5823 5826 5831 5837 5836 5834 5835 5836 5838 5839 5841 5842 5844 5846 5847 5848 5849
5610 5612 5616 5619 5623 5627 5629 5632 5636 5638 5641 5644 5647 5650 5652 5656 5660 5662 5666 5669 5673 5677 5680 5683 5685 5689 5689 5691 5702 5714 5720 5721 5720 5722 5726 5728 5731 5734 5736 5739 5742 5745 5749 5751 5755 5758 5761 5764 5767 5770 5773 5776 5778 5780 5783 5787 5789 5792 5793 5796 5799 5801 5804 5807 5808 5808 5809 5811 5815 5815 5814 5820 5825 5828 5832 5831 5831 5832 5833 5835 5837 5838 5839 5841 5843 5844 5846 5846
5597 5601 5604 5608 5612 5616 5620 5623 5626 5629 5633 5635 5639 5642 5645 5648 5650 5654 5657 5660 5665 5668 5671 5674 5678 5681 5681 5687 5698 5705 5712 5715 5715 5720 5723 5724 5727 5729 5731 5734 5736 5739 5743 5746 5749 5752 5755 5759 5762 5765 5768 5770 5773 5775 5778 5781 5784 5786 5788 5791 5794 5796 5800 5804 5805 5804 5806 5807 5810 5809 5807 5815 5823 5824 5826 5827 5826 5828 5830 5833 5833 5834 5836 5837 5839 5841 5843 5844
5583 5587 5592 5596 5600 5604 5609 5613 5616 5620 5624 5626 5630 5633 5636 5640 5642 5646 5648 5652 5656 5659 5664 5667 5670 5673 5676 5682 5691 5698 5704 5708 5713 5717 5717 5719 5721 5723 5726 5729 5731 5734 5737 5740 5743 5746 5750 5753 5756 5759 5762 5765 5767 5770 5773 5775 5778 5781 5782 5785 5789 5792 5796 5800 5801 5800 5801 5802 5803 5802 5801 5811 5820 5821 5821 5822 5822 5823 5825 5828 5829 5830 5832 5833 5836 5838 5840 5841
5569 5573 5578 5583 5587 5592 5596 5601 5606 5611 5614 5617 5621 5624 5627 5630 5634 5637 5640 5644 5647 5650 5655 5658 5662 5666 5668 5675 5684 5690 5696 5703 5711 5711 5709 5713 5716 5717 5720 5722 5725 5728 5731 5734 5737 5740 5743 5747 5750 5752 5756 5759 5762 5765 5768 5770 5773 5776 5778 5781 5784 5788 5791 5794 5795 5794 5795 5796 5797 5798 5797 5806 5816 5818 5817 5816 5817 5818 5819 5823 5825 5826 5828 5830 5832 5834 5837 5838
5555 5559 5564 5569 5574 5579 5584 5588 5594 5600 5604 5608 5612 5615 5618 5621 5625 5628 5632 5635 5638 5643 5646 5649 5656 5657 5659 5670 5677 5681 5688 5697 5704 5703 5703 5707 5709 5711 5713 5716 5719 5721 5725 5728 5730 5734 5737 5740 5743 5746 5750 5754 5757 5760 5761 5764 5768 5772 5773 5776 5779 5782 5785 5788 5790 5789 5790 5791 5793 5794 5793 5798 5808 5812 5812 5811 5811 5813 5814 5817 5820 5822 5824 5826 5828 5830 5833 5835
5543 5546 5551 5555 5560 5566 5571 5575 5581 5587 5592 5597 5601 5605 5608 5611 5615 5618 5622 5627 5631 5634 5635 5641 5647 5646 5653 5665 5667 5673 5681 5688 5695 5696 5697 5700 5703 5704 5707 5710 5713 5716 5718 5721 5725 5728 5730 5733 5737 5739 5744 5748 5751 5754 5757 5761 5766 5767 5769 5772 5774 5776 5779 5782 5783 5783 5784 5785 5786 5787 5787 5791 5800 5807 5808 5807 5807 5808 5810 5812 5815 5819 5821 5823 5825 5826 5828 5830
5533 5535 5539 5543 5547 5552 5557 5562 5569 5575 5580 5586 5590 5594 5597 5600 5605 5608 5613 5618 5621 5624 5628 5634 5637 5640 5651 5656 5658 5666 5671 5678 5686 5687 5689 5694 5696 5698 5701 5703 5707 5710 5712 5715 5719 5721 5724 5727 5729 5733 5739 5744 5748 5752 5755 5758 5760 5762 5764 5766 5768 5770 5772 5776 5776 5776 5778 5779 5780 5782 5783 5786 5793 5801 5803 5803 5803 5804 5806 5808 5811 5814 5817 5820 5821 5822 5824 5825
5525 5527 5529 5533 5537 5541 5545 5550 5556 5562 5568 5573 5579 5582 5585 5590 5595 5600 5605 5608 5613 5618 5622 5626 5630 5636 5644 5646 5651 5658 5662 5669 5676 5680 5684 5688 5689 5692 5696 5698 5701 5704 5707 5712 5714 5716 5719 5719 5723 5730 5738 5742 5746 5748 5749 5750 5753 5756 5757 5759 5762 5764 5767 5770 5770 5770 5771 5773 5776 5778 5778 5781 5786 5793 5798 5798 5798 5800 5803 5805 5807 5810 5812 5814 5816 5818 5819 5821
5519 5520 5522 5525 5528 5531 5536 5540 5545 5550 5555 5561 5567 5569 5574 5582 5586 5591 5597 5599 5605 5610 5612 5618 5623 5628 5634 5639 5644 5649 5653 5661 5666 5672 5678 5680 5682 5686 5690 5694 5695 5698 5704 5707 5707 5710 5711 5712 5721 5730 5734 5737 5738 5738 5740 5743 5747 5749 5751 5754 5756 5759 5762 5764 5763 5764 5765 5766 5770 5771 5771 5775 5779 5785 5791 5792 5794 5798 5800 5801 5803 5806 5807 5809 5811 5813 5815 5817
5514 5515 5516 5518 5521 5524 5528 5532 5536 5540 5544 5550 5554 5558 5566 5574 5577 5583 5587 5588 5594 5599 5602 5609 5613 5619 5628 5632 5635 5639 5643 5650 5655 5661 5667 5672 5675 5678 5685 5688 5688 5693 5698 5698 5700 5704 5704 5709 5720 5726 5728 5730 5729 5731 5734 5737 5740 5743 5746 5748 5750 5754 5757 5759 5759 5759 5759 5759 5763 5765 5765 5770 5774 5778 5783 5786 5790 5794 5795 5796 5798 5800 5802 5804 5806 5808 5810 5812
5510 5511 5512 5513 5516 5518 5521 5525 5529 5533 5536 5540 5544 5549 5557 5563 5566 5572 5576 5575 5582 5588 5591 5599 5604 5613 5622 5623 5628 5634 5634 5639 5645 5650 5656 5663 5669 5673 5678 5681 5683 5689 5689 5689 5695 5697 5699 5707 5717 5720 5721 5723 5724 5727 5729 5731 5735 5738 5741 5743 5746 5751 5752 5753 5755 5755 5754 5754 5756 5758 5758 5763 5769 5772 5777 5781 5784 5788 5790 5791 5793 5795 5797 5799 5801 5803 5805 5807
5508 5509 5509 5510 5512 5513 5516 5520 5523 5527 5529 5532 5537 5542 5548 5554 5557 5562 5565 5563 5568 5577 5583 5591 5595 5602 5613 5618 5622 5624 5625 5631 5635 5641 5648 5655 5662 5666 5668 5674 5678 5680 5680 5685 5690 5690 5695 5704 5710 5714 5715 5716 5718 5721 5724 5726 5729 5732 5734 5737 5742 5745 5746 5746 5748 5749 5749 5749 5750 5751 5749 5756 5764 5766 5771 5776 5777 5781 5785 5786 5788 5790 5792 5794 5795 5798 5800 5801
5506 5507 5507 5508 5508 5510 5513 5515 5518 5521 5523 5528 5533 5537 5541 5546 5551 5555 5556 5552 5556 5567 5574 5579 5583 5592 5607 5611 5610 5614 5618 5622 5626 5633 5640 5646 5654 5658 5661 5666 5668 5669 5675 5682 5682 5682 5691 5697 5701 5705 5706 5708 5711 5714 5718 5721 5723 5725 5728 5733 5736 5738 5739 5739 5740 5741 5742 5743 5746 5745 5741 5748 5760 5762 5764 5770 5771 5775 5779 5781 5783 5785 5787 5789 5791 5793 5795 5796
5505 5505 5505 5506 5506 5508 5509 5511 5514 5515 5518 5526 5530 5532 5534 5539 5545 5548 5548 5544 5544 5555 5564 5568 5575 5588 5601 5600 5604 5612 5609 5611 5621 5625 5628 5636 5645 5650 5652 5654 5657 5662 5670 5675 5672 5674 5685 5691 5693 5695 5698 5702 5704 5706 5712 5715 5714 5716 5722 5728 5729 5730 5732 5732 5733 5733 5734 5738 5741 5740 5737 5740 5751 5757 5758 5763 5767 5770 5773 5775 5779 5780 5782 5784 5786 5788 5789 5790
5505 5503 5503 5504 5504 5506 5507 5508 5511 5511 5516 5522 5523 5526 5529 5534 5540 5542 5544 5538 5534 5546 5559 5561 5570 5585 5594 5594 5601 5603 5596 5607 5622 5617 5620 5631 5638 5641 5640 5643 5649 5655 5662 5663 5660 5665 5677 5683 5683 5686 5691 5693 5694 5699 5707 5709 5708 5711 5720 5723 5723 5725 5725 5725 5726 5725 5728 5732 5733 5736 5736 5732 5739 5750 5754 5757 5762 5765 5768 5770 5773 5776 5778 5779 5781 5783 5784 5785
5506 5503 5502 5502 5503 5504 5505 5506 5508 5511 5514 5516 5518 5521 5524 5530 5536 5537 5538 5531 5528 5544 5554 5556 5567 5580 5585 5585 5589 5590 5592 5609 5615 5610 5618 5627 5627 5630 5631 5636 5644 5648 5652 5650 5650 5662 5672 5675 5677 5680 5682 5684 5691 5699 5704 5705 5705 5710 5715 5716 5718 5718 5717 5718 5719 5720 5723 5723 5722 5731 5733 5726 5729 5741 5749 5752 5757 5760 5763 5766 5769 5772 5774 5774 5775 5777 5778 5779
5506 5504 5502 5501 5501 5502 5503 5504 5507 5509 5510 5513 5516 5518 5521 5527 5530 5531 5530 5523 5526 5543 5549 5551 5562 5569 5572 5575 5579 5584 5591 5598 5600 5605 5614 5614 5615 5622 5624 5632 5639 5640 5642 5640 5646 5660 5664 5668 5673 5671 5671 5680 5691 5696 5697 5699 5701 5705 5706 5708 5711 5709 5709 5711 5710 5713 5714 5709 5714 5726 5728 5722 5721 5730 5740 5745 5751 5755 5758 5763 5765 5768 5769 5769 5770 5771 5773 5774
5507 5505 5503 5501 5501 5501 5501 5503 5505 5506 5508 5512 5514 5516 5519 5521 5523 5524 5520 5516 5527 5541 5543 5547 5555 5558 5565 5570 5573 5579 5584 5586 5592 5600 5603 5600 5606 5614 5618 5627 5632 5632 5633 5633 5642 5652 5655 5659 5661 5659 5664 5674 5683 5686 5687 5689 5691 5694 5695 5697 5699 5699 5702 5702 5700 5705 5702 5698 5710 5719 5721 5721 5714 5718 5730 5737 5745 5751 5753 5759 5762 5763 5764 5765 5765 5766 5768 5769
5506 5505 5503 5502 5501 5500 5500 5502 5503 5503 5506 5508 5510 5513 5514 5515 5517 5516 5512 5517 5531 5536 5536 5543 5547 5550 5558 5563 5566 5574 5578 5581 5587 5592 5593 5594 5599 5603 5608 5616 5621 5623 5624 5625 5634 5643 5646 5646 5647 5651 5659 5666 5671 5674 5677 5679 5682 5685 5687 5689 5690 5691 5694 5694 5694 5696 5689 5693 5706 5710 5714 5714 5705 5712 5724 5731 5741 5746 5748 5753 5756 5758 5760 5760 5761 5762 5763 5764
5505 5504 5503 5502 5501 5500 5500 5501 5501 5502 5504 5505 5507 5509 5510 5510 5509 5506 5510 5522 5529 5527 5531 5539 5541 5545 5552 5555 5559 5567 5572 5575 5580 5584 5587 5589 5591 5594 5600 5608 5613 5615 5614 5619 5628 5633 5634 5634 5636 5643 5653 5658 5661 5665 5669 5672 5675 5678 5680 5681 5681 5683 5686 5685 5687 5687 5683 5690 5699 5702 5708 5702 5699 5714 5722 5725 5735 5739 5742 5746 5748 5752 5754 5754 5755 5756 5757 5759
5504 5503 5502 5501 5501 5501 5500 5500 5499 5499 5501 5503 5504 5505 5506 5503 5501 5503 5511 5520 5520 5520 5529 5536 5537 5542 5546 5548 5552 5559 5564 5566 5570 5576 5580 5582 5584 5587 5594 5602 5608 5609 5610 5617 5623 5625 5625 5625 5627 5633 5642 5650 5652 5656 5661 5665 5668 5671 5672 5674 5675 5677 5678 5678 5682 5681 5680 5688 5693 5697 5698 5691 5699 5717 5719 5721 5728 5730 5735 5739 5739 5744 5747 5748 5750 5750 5752 5753
5502 5501 5500 5500 5500 5500 5500 5499 5497 5497 5499 5500 5501 5501 5500 5496 5497 5504 5509 5512 5515 5520 5528 5532 5536 5540 5541 5543 5549 5553 5557 5559 5563 5569 5571 5572 5574 5577 5585 5593 5598 5602 5607 5612 5615 5618 5619 5617 5622 5630 5637 5644 5648 5652 5657 5661 5662 5664 5668 5670 5669 5671 5674 5675 5677 5676 5678 5686 5688 5687 5685 5685 5701 5714 5714 5717 5720 5721 5726 5729 5732 5736 5738 5741 5744 5744 5746 5746
5500 5499 5498 5498 5499 5498 5499 5497 5496 5496 5496 5498 5499 5497 5494 5493 5497 5501 5503 5508 5513 5517 5523 5527 5533 5536 5534 5538 5544 5547 5550 5553 5557 5561 5561 5563 5566 5570 5578 5585 5590 5596 5600 5601 5605 5612 5612 5611 5621 5630 5633 5639 5645 5649 5653 5652 5652 5657 5662 5660 5659 5667 5671 5667 5666 5669 5674 5677 5674 5674 5675 5682 5697 5705 5707 5710 5710 5712 5716 5719 5725 5729 5730 5733 5736 5739 5740 5739
5498 5497 5495 5496 5496 5497 5497 5495 5494 5494 5494 5495 5496 5494 5492 5493 5496 5498 5501 5507 5510 5513 5518 5521 5525 5529 5530 5533 5537 5541 5544 5546 5550 5553 5553 5557 5560 5565 5572 5578 5584 5590 5593 5596 5601 5606 5607 5608 5617 5622 5622 5629 5637 5641 5641 5640 5644 5651 5651 5648 5655 5664 5661 5655 5659 5665 5667 5663 5663 5668 5672 5681 5689 5692 5699 5703 5702 5706 5709 5712 5718 5720 5722 5726 5729 5731 5733 5733
5495 5494 5493 5493 5495 5495 5494 5493 5492 5492 5492 5493 5491 5489 5489 5492 5494 5497 5501 5505 5506 5509 5513 5514 5517 5522 5526 5530 5533 5537 5539 5540 5544 5546 5547 5551 5553 5558 5565 5571 5577 5582 5587 5595 5599 5602 5604 5605 5610 5613 5616 5625 5630 5630 5629 5632 5639 5642 5638 5644 5655 5653 5647 5651 5656 5657 5654 5651 5656 5662 5667 5675 5678 5680 5691 5696 5697 5700 5701 5704 5709 5711 5715 5719 5722 5723 5724 5727
5492 5490 5489 5491 5493 5493 5491 5490 5489 5489 5490 5489 5486 5486 5487 5488 5491 5494 5499 5502 5503 5506 5507 5508 5512 5518 5522 5526 5529 5534 5535 5535 5538 5541 5543 5545 5546 5552 5561 5566 5571 5575 5583 5589 5591 5594 5599 5598 5601 5606 5612 5619 5620 5618 5619 5625 5632 5632 5631 5640 5643 5637 5640 5647 5646 5645 5645 5644 5648 5654 5658 5663 5667 5675 5685 5689 5692 5696 5695 5697 5701 5703 5708 5711 5714 5715 5717 5720
5488 5486 5485 5489 5491 5490 5488 5486 5486 5486 5486 5485 5484 5485 5486 5486 5488 5491 5495 5498 5500 5501 5502 5505 5510 5514 5517 5520 5524 5529 5530 5531 5535 5537 5539 5541 5544 5552 5559 5562 5566 5570 5577 5581 5581 5588 5593 5590 5592 5599 5605 5608 5607 5607 5610 5618 5624 5621 5622 5628 5629 5628 5635 5638 5636 5639 5641 5637 5640 5645 5645 5650 5662 5673 5678 5680 5685 5687 5688 5693 5694 5695 5699 5702 5704 5707 5709 5713
5485 5483 5483 5487 5488 5486 5485 5483 5483 5483 5482 5483 5484 5484 5484 5486 5487 5489 5492 5494 5495 5497 5499 5502 5506 5508 5512 5516 5519 5524 5526 5528 5531 5533 5534 5537 5542 5549 5554 5557 5561 5566 5572 5575 5576 5583 5587 5584 5586 5593 5596 5595 5594 5598 5607 5616 5616 5612 5615 5620 5622 5625 5629 5629 5628 5631 5632 5629 5630 5632 5632 5642 5658 5666 5669 5674 5678 5680 5684 5689 5689 5690 5693 5694 5695 5699 5702 5705
5482 5480 5481 5484 5484 5483 5482 5479 5479 5480 5479 5480 5481 5481 5483 5485 5485 5487 5489 5490 5490 5491 5495 5499 5502 5503 5506 5511 5514 5518 5521 5523 5527 5529 5531 5534 5538 5544 5550 5554 5558 5562 5566 5567 5569 5575 5579 5580 5583 5585 5585 5584 5589 5598 5608 5611 5606 5606 5611 5614 5618 5622 5624 5623 5620 5623 5626 5623 5625 5627 5625 5636 5654 5660 5663 5671 5675 5677 5680 5682 5684 5686 5686 5685 5686 5689 5691 5693
5479 5477 5479 5480 5479 5479 5478 5475 5477 5478 5476 5476 5478 5479 5482 5483 5483 5483 5485 5486 5486 5487 5491 5494 5496 5498 5502 5506 5509 5512 5515 5518 5522 5524 5527 5530 5535 5540 5548 5553 5555 5558 5559 5560 5565 5572 5575 5577 5577 5577 5578 5581 5588 5595 5599 5600 5599 5601 5604 5607 5612 5614 5614 5614 5611 5618 5623 5617 5621 5624 5614 5627 5651 5655 5656 5663 5667 5669 5671 5673 5676 5678 5677 5677 5677 5679 5680 5681
5475 5475 5475 5476 5475 5475 5473 5472 5473 5473 5472 5474 5476 5477 5479 5480 5480 5480 5481 5481 5482 5484 5486 5488 5491 5495 5499 5502 5505 5508 5510 5512 5515 5519 5523 5527 5532 5538 5543 5546 5549 5551 5551 5554 5560 5565 5566 5567 5569 5572 5575 5578 5582 5585 5587 5591 5592 5591 5594 5599 5602 5601 5605 5608 5606 5613 5615 5608 5616 5617 5605 5623 5648 5647 5649 5656 5656 5659 5661 5663 5667 5669 5668 5669 5668 5670 5670 5671
5472 5471 5471 5472 5473 5471 5468 5467 5468 5469 5470 5472 5473 5474 5475 5476 5477 5478 5478 5478 5479 5480 5482 5485 5489 5492 5496 5500 5501 5503 5506 5507 5510 5514 5518 5522 5529 5535 5537 5539 5542 5543 5544 5548 5553 5556 5557 5558 5562 5565 5566 5567 5571 5574 5575 5579 5580 5582 5587 5593 5594 5596 5601 5601 5601 5606 5604 5601 5611 5606 5598 5622 5641 5637 5644 5651 5646 5649 5653 5653 5658 5661 5661 5662 5662 5662 5663 5664
5469 5469 5468 5468 5468 5468 5466 5465 5466 5466 5467 5468 5469 5470 5471 5472 5474 5475 5476 5476 5476 5477 5479 5482 5486 5489 5492 5495 5496 5498 5501 5502 5506 5510 5513 5517 5524 5529 5531 5534 5537 5537 5541 5546 5548 5549 5550 5552 5554 5555 5554 5555 5558 5562 5566 5572 5575 5576 5580 5584 5587 5591 5593 5593 5596 5596 5592 5596 5604 5595 5594 5619 5632 5629 5638 5643 5637 5641 5647 5647 5650 5653 5653 5655 5656 5655 5656 5658
5465 5465 5465 5464 5464 5464 5464 5464 5464 5464 5464 5464 5464 5466 5467 5469 5470 5472 5473 5473 5473 5474 5475 5478 5481 5482 5484 5487 5488 5491 5494 5497 5501 5504 5508 5513 5518 5522 5525 5530 5533 5535 5539 5542 5541 5542 5543 5544 5545 5546 5547 5548 5554 5562 5568 5570 5569 5570 5574 5580 5584 5586 5587 5589 5588 5585 5588 5594 5593 5589 5596 5611 5620 5624 5631 5632 5630 5634 5640 5642 5643 5644 5645 5646 5647 5647 5649 5651
5462 5462 5463 5462 5461 5460 5461 5462 5462 5461 5461 5460 5460 5461 5464 5465 5467 5468 5469 5469 5470 5471 5472 5474 5476 5476 5478 5481 5483 5486 5490 5492 5495 5498 5502 5507 5512 5516 5520 5523 5527 5532 5537 5538 5538 5539 5538 5537 5540 5542 5543 5546 5553 5560 5563 5561 5560 5564 5569 5574 5577 5579 5580 5581 5577 5579 5589 5587 5579 5588 5599 5600 5608 5621 5625 5623 5625 5627 5630 5633 5634 5635 5636 5635 5635 5637 5639 5642
5458 5459 5459 5459 5458 5458 5457 5458 5458 5457 5456 5456 5456 5457 5459 5461 5463 5464 5465 5466 5467 5468 5468 5469 5470 5472 5476 5479 5481 5483 5486 5488 5490 5494 5497 5501 5507 5512 5515 5517 5520 5524 5530 5533 5533 5533 5531 5532 5538 5540 5540 5544 5549 5553 5555 5553 5553 5556 5560 5563 5568 5570 5570 5570 5570 5576 5583 5575 5572 5587 5594 5588 5597 5613 5616 5617 5618 5616 5618 5621 5622 5624 5624 5624 5626 5628 5631 5634
5454 5455 5456 5455 5455 5455 5454 5454 5454 5452 5452 5452 5452 5453 5454 5456 5459 5461 5462 5463 5464 5464 5464 5464 5465 5468 5472 5477 5478 5479 5482 5484 5487 5492 5497 5500 5505 5509 5510 5513 5515 5518 5521 5524 5525 5528 5526 5528 5534 5535 5534 5539 5543 5546 5549 5548 5546 5548 5552 5555 5559 5561 5562 5563 5565 5569 5572 5568 5571 5581 5581 5579 5589 5600 5606 5610 5609 5607 5609 5610 5611 5613 5615 5617 5619 5622 5625 5627
5449 5450 5451 5450 5451 5451 5450 5450 5450 5449 5449 5449 5449 5450 5451 5452 5455 5457 5458 5459 5460 5461 5461 5462 5464 5466 5468 5472 5473 5474 5480 5484 5487 5492 5497 5500 5503 5505 5506 5509 5513 5514 5515 5515 5517 5520 5520 5522 5528 5530 5528 5530 5536 5540 5541 5541 5540 5542 5544 5547 5551 5553 5555 5555 5558 5562 5564 5563 5567 5572 5569 5571 5582 5591 5598 5604 5603 5602 5602 5600 5601 5606 5608 5610 5613 5615 5618 5618
5445 5446 5446 5445 5446 5447 5446 5446 5445 5445 5445 5445 5446 5447 5447 5447 5451 5453 5452 5454 5457 5458 5459 5460 5462 5463 5464 5466 5466 5469 5477 5483 5485 5491 5495 5496 5500 5503 5504 5506 5508 5508 5508 5509 5509 5511 5513 5516 5521 5524 5521 5523 5531 5534 5534 5536 5536 5533 5534 5539 5543 5545 5548 5549 5552 5557 5558 5559 5563 5564 5560 5565 5579 5588 5593 5597 5597 5595 5594 5594 5596 5601 5605 5606 5606 5607 5608 5609
5441 5442 5442 5441 5441 5442 5442 5442 5441 5440 5440 5441 5441 5443 5442 5444 5447 5446 5446 5450 5453 5455 5456 5457 5457 5458 5458 5460 5461 5467 5476 5481 5484 5488 5489 5490 5493 5496 5496 5498 5499 5499 5499 5501 5501 5503 5506 5509 5513 5515 5514 5516 5524 5526 5527 5529 5524 5517 5524 5535 5538 5540 5543 5545 5547 5550 5553 5555 5555 5554 5556 5566 5578 5583 5583 5586 5589 5588 5589 5591 5591 5594 5597 5596 5595 5597 5599 5601